Find SARAL

NORAD ID: 39086 Int'l Des: 2013-009 Owner: ISRO/CNES Country: IN operational
LEOCIRCULARRETROGRADESSO

現在のビュー

3D地球を読み込み中...

About SARAL

SARAL (NORAD 39086) is a satellite launched Feb 25, 2013 by ISRO/CNES of IN. It operates in LEO, CIRCULAR, RETROGRADE, SSO orbit with a mass of 409.00 kg.

次回通過

Passes for default location (London). Set your location on the main map for personalized predictions.

高度履歴

Loading altitude history...

軌道要素

1 39086U 13009A 26194.85557470 .00000040 00000-0 30836-4 0 9990
2 39086 98.5554 21.0855 0001618 169.9712 190.1505 14.32895594699427
Epoch: Jul 13, 2026 • Age: 10 hours

現在のステータス

高度 798.4 km
遠地点 / 近地点 N/A
速度 7.45 km/s
衛星直下点 -40.14°S, 0.6°E
打ち上げ日 Feb 25, 2013
運用期間 13.3 years
タイプ other

技術仕様

分類 Payload
質量 409.00 kg
乾燥質量 409.00 kg
総質量 409.00 kg
長さ 2.70 m
直径 1.00 m
スパン 4.00 m
形状 Box + 2 pan
製造者 ISAC
バスタイプ SSB-2
フェーズステータス In Orbit
所有者/国 ISRO/CNES/IN

Most Searched